(331940) = 2004 TK119

Discovered at Socorro on 2004-10-06 by LINEAR.

Orbit

Orbit type: Main Belt

Note: WebGL enabled browser required.

epoch2024-03-31.0
epoch JD2460400.5
perihelion date2021-10-04.58214
perihelion JD2459492.08214
argument of perihelion (°)207.79694
ascending node (°)129.60662
inclination (°)7.76314
eccentricity0.2721019
perihelion distance (AU)1.9264703
Tisserand w.r.t. Jupiter3.3
ΔV w.r.t. Earth (km/sec)9.1
semimajor axis (AU)2.6466209
mean anomaly (°)207.94664
mean daily motion (°/day)0.22891080
aphelion distance (AU)3.367
period (years)4.31
P-vector [x]0.91994124
P-vector [y]-0.32997441
P-vector [z]-0.21171917
Q-vector [x]0.37799160
Q-vector [y]0.88983939
Q-vector [z]0.25555472
absolute magnitude17.2
phase slope0.15
uncertainty0
referenceMPEC 2024-E190
observations used288
oppositions14
arc length (days)8032
first opposition used2002
last opposition used2024
residual rms (arc-secs)0.72
perturbers coarse indicatorM-v
perturbers precise indicator003Ek
first observation date used2002-03-18.0
last observation date used2024-03-14.0
computer nameMPCLINUX
JD of orbit computation2456670.963037
perihelion JD uncertainty (days)2.0657E-04
argument of perihelion uncertainty (°)1.0327E-04
ascending node uncertainty (°)9.3215E-05
inclination uncertainty (°)9.5203E-06
eccentricity uncertainty 8.1269E-08
perihelion distance uncertainty (AU)2.3087E-07
Minimum Orbit Intersection Distances (in AU)
for orbit epoch: 2460400.5, reference: E2024-EJ0
Mercury1.5287
Venus1.19874
Earth0.92048
Mars0.54704
Jupiter2.02055
Saturn5.89273
Uranus15.0823
Neptune27.0242

Observations

294 total observations over interval: 2002 03 18.16652 – 2024 03 14.354596
These data are available for download (format description).

Date (UT) J2000 RA J2000 Dec Magn Location Ref
2002 03 18.16652 09 26 16.07 +18 39 50.3 21.2 R 695 – Kitt Peak MPS 252635
2002 03 18.22811 09 26 14.19 +18 40 01.9   695 – Kitt Peak MPS 252635
2004 08 27.39731 01 20 55.58 -02 26 18.4 19.0 R 699 – Lowell Observatory-LONEOS MPS 120575
2004 08 27.41026 01 20 55.62 -02 26 23.8   699 – Lowell Observatory-LONEOS MPS 120575
2004 08 27.42322 01 20 55.77 -02 26 28.7   699 – Lowell Observatory-LONEOS MPS 120575
2004 08 27.43616 01 20 55.88 -02 26 33.0   699 – Lowell Observatory-LONEOS MPS 120575
2004 09 08.29795 01 20 41.00 -03 58 45.0 19.9   704 – Lincoln Laboratory ETS, New Mexico MPS 120575
2004 09 08.30925 01 20 40.79 -03 58 51.9 19.8   704 – Lincoln Laboratory ETS, New Mexico MPS 120575
2004 09 08.32055 01 20 40.61 -03 58 58.7 19.7   704 – Lincoln Laboratory ETS, New Mexico MPS 120575
2004 09 08.33229 01 20 40.47 -03 59 03.9 19.3   704 – Lincoln Laboratory ETS, New Mexico MPS 120575
2004 09 14.33926 01 18 48.63 -04 51 32.0 19.1 R 699 – Lowell Observatory-LONEOS MPS 120575
2004 09 14.35549 01 18 48.09 -04 51 41.9   699 – Lowell Observatory-LONEOS MPS 120575
2004 09 14.37172 01 18 47.62 -04 51 50.8   699 – Lowell Observatory-LONEOS MPS 120575
2004 09 14.38798 01 18 47.19 -04 51 59.2   699 – Lowell Observatory-LONEOS MPS 120575
2004 10 06.27440 01 05 09.22 -07 50 47.0 19.2   704 – Lincoln Laboratory ETS, New Mexico MPS 117829
2004 10 06.28576 01 05 08.63 -07 50 51.9 19.3   704 – Lincoln Laboratory ETS, New Mexico MPS 117829
2004 10 06.29716 01 05 08.15 -07 50 56.6 19.6   704 – Lincoln Laboratory ETS, New Mexico MPS 117829
2004 10 06.30854 01 05 07.62 -07 51 01.2 19.6   704 – Lincoln Laboratory ETS, New Mexico MPS 117829
2004 10 10.25323 01 02 11.23 -08 14 49.1 19.1   704 – Lincoln Laboratory ETS, New Mexico MPS 117829
2004 10 10.27697 01 02 10.12 -08 14 59.2 19.4   704 – Lincoln Laboratory ETS, New Mexico MPS 117829
2004 10 10.28882 01 02 09.51 -08 15 01.3 19.7   704 – Lincoln Laboratory ETS, New Mexico MPS 117829
2004 10 10.30065 01 02 08.99 -08 15 05.0 19.6   704 – Lincoln Laboratory ETS, New Mexico MPS 117829
2004 10 20.18486 00 55 16.93 -08 55 51.6 19.2 R 703 – Catalina Sky Survey MPS 120575
2004 10 20.19832 00 55 16.35 -08 55 53.7 19.6 R 703 – Catalina Sky Survey MPS 120575
2004 10 20.21179 00 55 15.80 -08 55 55.6 19.6 R 703 – Catalina Sky Survey MPS 120575
2004 10 20.22531 00 55 15.26 -08 55 58.8 19.1 R 703 – Catalina Sky Survey MPS 120575
2007 03 20.32273 12 39 26.78 +05 42 07.1 21.6 V G96 – Mt. Lemmon Survey MPS 252635
2007 03 20.32969 12 39 26.53 +05 42 10.9 22.2 V G96 – Mt. Lemmon Survey MPS 252635
2007 03 20.33683 12 39 26.17 +05 42 13.6 21.6 V G96 – Mt. Lemmon Survey MPS 252635
2007 03 20.34382 12 39 25.84 +05 42 16.7 21.7 V G96 – Mt. Lemmon Survey MPS 252635
2008 07 03.51045 20 02 31.02 -15 31 12.0 19.8 V E12 – Siding Spring Survey MPS 252635
2008 07 03.52045 20 02 30.62 -15 31 16.3 19.9 V E12 – Siding Spring Survey MPS 252635
2008 07 03.53050 20 02 30.26 -15 31 19.2 19.3 V E12 – Siding Spring Survey MPS 252635
2008 07 03.54074 20 02 29.83 -15 31 23.3 19.1 V E12 – Siding Spring Survey MPS 252635
2008 08 04.51876 19 38 40.95 -19 36 55.1 19.6 V E12 – Siding Spring Survey MPS 253524
2008 08 04.52699 19 38 40.63 -19 36 58.6 19.2 V E12 – Siding Spring Survey MPS 253524
2008 08 04.53531 19 38 40.30 -19 37 02.3 18.8 V E12 – Siding Spring Survey MPS 253524
2008 08 04.54355 19 38 39.91 -19 37 06.7 19.4 V E12 – Siding Spring Survey MPS 253524
2012 05 30.27406 16 16 04.69 -09 21 28.3 20.0 V G96 – Mt. Lemmon Survey MPS 425996
2012 05 30.27579 16 16 04.58 -09 21 28.1 20.0 V G96 – Mt. Lemmon Survey MPS 425996
2012 05 30.27982 16 16 04.36 -09 21 28.0 19.8 V G96 – Mt. Lemmon Survey MPS 425996
2012 05 30.28156 16 16 04.22 -09 21 28.1 19.9 V G96 – Mt. Lemmon Survey MPS 425996
2012 05 30.28564 16 16 03.97 -09 21 27.5 20.1 V G96 – Mt. Lemmon Survey MPS 425996
2012 05 30.28738 16 16 03.90 -09 21 27.6 20.1 V G96 – Mt. Lemmon Survey MPS 425996
2012 05 30.29141 16 16 03.64 -09 21 27.2 19.9 V G96 – Mt. Lemmon Survey MPS 425996
2012 05 30.29312 16 16 03.54 -09 21 27.1 19.9 V G96 – Mt. Lemmon Survey MPS 425996
2012 06 13.34730 16 02 58.073 -09 18 23.73 20.4 w F51 – Pan-STARRS 1, Haleakala MPS 426480
2012 06 13.36202 16 02 57.280 -09 18 24.53 20.4 w F51 – Pan-STARRS 1, Haleakala MPS 426480
2012 06 13.37676 16 02 56.488 -09 18 25.29 20.6 w F51 – Pan-STARRS 1, Haleakala MPS 426480
2012 06 17.18329 15 59 47.89 -09 22 28.1 20.8 V 691 – Steward Observatory, Kitt Peak-Spacewatch MPS 427303
2012 06 17.20704 15 59 46.71 -09 22 29.7 20.4 V 691 – Steward Observatory, Kitt Peak-Spacewatch MPS 427303
2012 06 17.23078 15 59 45.53 -09 22 31.8 20.8 V 691 – Steward Observatory, Kitt Peak-Spacewatch MPS 427303
2013 12 07.20212 04 57 56.99 +12 16 10.4 20.6 V 691 – Steward Observatory, Kitt Peak-Spacewatch MPS 491956
2013 12 07.22332 04 57 55.69 +12 16 10.6 20.2 V 691 – Steward Observatory, Kitt Peak-Spacewatch MPS 491956
2013 12 07.24106 04 57 54.56 +12 16 11.8 20.3 V 691 – Steward Observatory, Kitt Peak-Spacewatch MPS 491956
2014 01 01.16604 04 36 00.40 +13 02 31.6 20.2 V G96 – Mt. Lemmon Survey MPS 495152
2014 01 01.17115 04 36 00.19 +13 02 33.3 20.8 V G96 – Mt. Lemmon Survey MPS 495152
2014 01 01.17625 04 35 59.99 +13 02 33.8 20.5 V G96 – Mt. Lemmon Survey MPS 495152
2014 01 01.18136 04 35 59.73 +13 02 34.9 20.9 V G96 – Mt. Lemmon Survey MPS 495152
2015 01 22.44862 10 28 21.561 +12 36 24.71 22.3 w F51 – Pan-STARRS 1, Haleakala MPS 567100
2015 01 22.46221 10 28 21.086 +12 36 29.23 22.1 w F51 – Pan-STARRS 1, Haleakala MPS 567100
2015 01 22.47582 10 28 20.614 +12 36 33.61 22.3 w F51 – Pan-STARRS 1, Haleakala MPS 567100
2015 01 22.48954 10 28 20.122 +12 36 37.89 22.3 w F51 – Pan-STARRS 1, Haleakala MPS 567100
2016 05 01.42158 14 10 23.759 -00 37 41.97 21.2 w F51 – Pan-STARRS 1, Haleakala MPS 708077
2016 05 01.43428 14 10 23.071 -00 37 38.51 21.1 w F51 – Pan-STARRS 1, Haleakala MPS 708077
2016 05 01.44697 14 10 22.388 -00 37 35.28 21.4 w F51 – Pan-STARRS 1, Haleakala MPS 708077
2016 05 01.45970 14 10 21.696 -00 37 31.59 21.4 w F51 – Pan-STARRS 1, Haleakala MPS 708077
2016 05 02.41326 14 09 31.53 -00 33 21.0 21.5 V 691 – Steward Observatory, Kitt Peak-Spacewatch MPS 708077
2016 05 02.42484 14 09 30.88 -00 33 18.2 21.2 V 691 – Steward Observatory, Kitt Peak-Spacewatch MPS 708077
2016 05 02.44118 14 09 30.03 -00 33 14.6 21.7 V 691 – Steward Observatory, Kitt Peak-Spacewatch MPS 708077
2016 05 03.40250 14 08 40.028 -00 29 07.86 21.4 w F51 – Pan-STARRS 1, Haleakala MPS 708077
2016 05 03.41613 14 08 39.315 -00 29 04.71 21.4 w F51 – Pan-STARRS 1, Haleakala MPS 708077
2016 05 03.42982 14 08 38.580 -00 29 01.10 21.0 w F51 – Pan-STARRS 1, Haleakala MPS 708077
2017 09 02.56816 02 18 36.595 +02 14 49.53 20.2 w F51 – Pan-STARRS 1, Haleakala MPS 815431
2017 09 02.58169 02 18 36.865 +02 14 45.46 20.2 w F51 – Pan-STARRS 1, Haleakala MPS 815431
2017 09 02.59538 02 18 37.134 +02 14 41.31 20.2 w F51 – Pan-STARRS 1, Haleakala MPS 815431
2017 09 02.60893 02 18 37.402 +02 14 37.33 20.4 w F51 – Pan-STARRS 1, Haleakala MPS 815431
2017 09 13.53884 02 20 41.67 +01 10 45.6 19.7 y T09 – Subaru Telescope, Maunakea MPS 2143377
2017 09 13.58752 02 20 41.52 +01 10 26.3 19.9 y T09 – Subaru Telescope, Maunakea MPS 2143377
2017 09 13.59314 02 20 41.51 +01 10 24.0 19.9 y T09 – Subaru Telescope, Maunakea MPS 2143377
2017 09 14.52086 02 20 40.668 +01 04 14.40 19.8 i F51 – Pan-STARRS 1, Haleakala MPS 816855
2017 09 14.53205 02 20 40.604 +01 04 09.94 19.7 i F51 – Pan-STARRS 1, Haleakala MPS 816855
2017 09 14.54326 02 20 40.548 +01 04 05.42 19.8 i F51 – Pan-STARRS 1, Haleakala MPS 816855
2017 09 14.55446 02 20 40.494 +01 04 00.98 19.9 i F51 – Pan-STARRS 1, Haleakala MPS 816855
2017 09 18.54185 02 20 15.131 +00 36 28.79 19.9 w F51 – Pan-STARRS 1, Haleakala MPS 818768
2017 09 18.55383 02 20 14.960 +00 36 23.64 19.9 w F51 – Pan-STARRS 1, Haleakala MPS 818768
2017 09 18.57785 02 20 14.636 +00 36 13.46 20.0 w F51 – Pan-STARRS 1, Haleakala MPS 818768
2017 09 29.34289 02 16 28.09 -00 43 11.4 19.9 V 703 – Catalina Sky Survey MPS 822760
2017 09 29.34918 02 16 27.83 -00 43 14.2 19.9 V 703 – Catalina Sky Survey MPS 822760
2017 09 29.36470 02 16 27.36 -00 43 20.4 19.8 V 703 – Catalina Sky Survey MPS 822760
